Simultaneous Nadir Overpasses (SNOs) Predictions

Prediction of SNOs between GOES-17 and METOP-B Satellite Orbit:

Table of predicted SNOs for the next 14.0 days since TLE Epoch: 5/13/2023
Index Date Time (GOES-17) GOES-17 Lat,Lon METOP-B Lat,Lon Distance(km) Time Diff (sec)
1 05/14/2023 16:29:12 -0.01,-104.74 -0.07,-104.52 25.59 80
2 05/17/2023 04:24:50 0.01,-104.71 0.12,-104.11 68.15 80
3 05/18/2023 16:43:40 -0.01,-104.76 0.87,-108.67 446.01 80
4 05/19/2023 16:25:40 -0.00,-104.76 -0.25,-103.68 123.98 80
5 05/21/2023 04:44:38 -0.00,-104.73 -0.80,-108.26 403.05 80
6 05/22/2023 04:21:17 -0.01,-104.73 0.32,-103.27 166.70 80
7 05/23/2023 16:40:07 0.01,-104.77 0.71,-107.82 347.64 80
8 05/24/2023 16:22:06 0.01,-104.78 -0.42,-102.82 222.30 80
9 05/26/2023 04:41:05 0.01,-104.75 -0.61,-107.41 304.58 80
